Hourly Data Report for July 04, 2022

ALGONQUIN PARK EAST GATE
ONTARIO
Current Station Operator: ECCC - MSC

45°32'00.000" N
78°16'00.000" W
397.00 m
6080192
71581
TNK

Download Data

Hourly Data (July 2022)
Hourly Data Report for July 4, 2022
TIME
LST
Temp Definition
°C
Dew Point Definition
°C
Rel Hum Definition
%
Precip. Amount Definition
mm

Wind Dir Definition
10's deg

Wind Spd Definition
km/h
Visibility Definition
km
Stn Press Definition
kPa
Hmdx Definition


Wind Chill Definition


Weather Definition


00:00 8.7 7.3 91 0.0   0   97.35     LegendNANA
01:00 7.9 7.0 94 0.0   0   97.37     LegendNANA
02:00 7.1 6.3 94 0.0   0   97.35     LegendNANA
03:00 6.5 5.9 96 0.0   0   97.37     LegendNANA
04:00 5.8 5.1 96 0.0   0   97.39     LegendNANA
05:00 5.5 5.0 97 0.0   0   97.42     LegendNANA
06:00 7.6 7.0 96 0.0   0   97.42     LegendNANA
07:00 11.9 10.3 90 0.0   0   97.46     LegendNANA
08:00 15.2 11.5 78 0.0 21 2   97.43     LegendNANA
09:00 19.4 10.6 57 0.0 23 3   97.38     LegendNANA
10:00 21.4 8.9 45 0.0 31 6   97.37     LegendNANA
11:00 22.5 7.9 39 0.0 28 7   97.35     LegendNANA
12:00 23.2 5.8 32 0.0 29 6   97.32     LegendNANA
13:00 24.3 7.3 34 0.0 28 7   97.31     LegendNANA
14:00 23.5 9.9 42 0.0 26 6   97.29 25   LegendNANA
15:00 23.2 10.3 44 0.0 27 5   97.26 25   LegendNANA
16:00 22.9 11.5 48 0.0 25 6   97.21 25   LegendNANA
17:00 23.1 11.9 49 0.0 31 5   97.19 25   LegendNANA
18:00 21.8 11.4 51 0.0 27 3   97.18     LegendNANA
19:00 20.5 12.0 58 0.0 24 3   97.17     LegendNANA
20:00 18.0 13.1 73 0.0   0   97.14     LegendNANA
21:00 15.9 13.9 88 0.0   0   97.19     LegendNANA
22:00 15.5 13.4 87 0.0   0   97.17     LegendNANA
23:00 15.3 13.1 87 0.0   0   97.13     LegendNANA

Notes on Data Quality.

Legend

  • E = Estimated
  • M = Missing
  • NA = Not Available*
  • [empty] = Indicates an unobserved value
Date modified: